DELTA 1 DEB, 7025

Orbit data source: Space-Track

DELTA 1 DEB, 7025 is space debris in LEO originally from a launch on Tue, 06 Nov 1973 UTC launched from the Air Force Western Test Range (AFWTR). Debris objects in space refer to the collection of defunct objects orbiting the Earth. Examples of debris include non-operational satellites, rocket bodies, and fragments generated from explosions, collisions, or faulty payload assembly.

Loading next visibility...
Identifier
7025, 1973-086R
Orbit
LEO
Country
Flag of USUS
Related business
Manufacturer
Unknown
Mission
Spacecraft
Bus & Motor
Unknown
Mass
Unknown
Launch date (UTC)
1973-11-06 (52 years ago)
Launch vehicle
Unknown
Launch site
Air Force Western Test Range (AFWTR)
Object type
Payload
Rocket body
Debris
Shape & HBR
Unknown shape, 0.3 m
Radar Cross Section
Medium (>0.1 m² and <1 m²)

Expand to show TLE details & history
Last TLE update: 15 hours ago

TLE from 15 hours ago
0 DELTA 1 DEB
1  7025U 73086R   25353.55047514 -.00000005  00000-0  45280-3 0  9995
2  7025 101.8947   3.2082 0463556 111.0847  37.5391 11.54261943196484
Epoch: 2025-12-19T13:12Z
TLE epoch observation values (Epoch: 2025-12-19T13:12:41.052Z)
Latitude
27.37336°
Longitude
-97.12239°
Altitude
1,598.25 km
Speed
7.199 km/s
True Right ascension
12h 37m 45s
True Declination
27° 14' 53"
Sunlit
Object was in daylight at epoch
Visualization orbit readout
Latitude
Unknown
Longitude
Unknown
Altitude
Unknown
Speed
Unknown
Apparent Right ascension
Unknown
Apparent Declination
Unknown
Sunlit
N/A
Visualization observer readout
Local Sidereal Time
03:35:12
Azimuth
Unknown
Elevation
Unknown
Doppler factor
Unknown
Orbital elements
Apogee altitude
2,273.324 km
Perigee altitude
1,506.771 km
Semi-major axis
8,268.184 km
Eccentricity
0.04636
Inclination
101.8947°
RAAN
3.2082°
Arg. of periapsis
111.0847°
True anomaly
40.92925°
Mean anomaly
37.5391°
Eccentric anomaly
39.21842°
Mean motion
2.88687 °/min
Orbital period
124.7 mins
BSTAR
0.0004528
Loading maneuver chart data...
Computing Atmospheric mass density...
Loading historical data...
Loading historical data...
Loading historical data...
Loading historical data...
Loading historical data...
Loading historical data...
Loading historical data...

Documentation

Showing up to 5 results
|